• Join FlightAware (Why Join?)
  • Login
  • US Flag GB Flag 
20:44 EDT


 

Airport Tracker/Info


-or-


 

Live Flight TrackerFlight Track Log ✈ EJA941 ✈ 09-May-2013 ✈ KSDL - KRYY

Flight Track Log - Related Links

Times and Time Zones

All times are in EDT time to prevent confusion due to time zone crossing. See the EJA941 flight status page for this flight to view local times or setup timezone preferences in your user account.

Time Position Orientation Groundspeed Altitude Reporting Facility
EDT Latitude Longitude Course Direction KTS MPH feet Rate Location/Type
15:13 33.6000 -111.9333 299° West 188 216 2,600  Level Phoenix TRACON
15:13 33.6236 -111.9850 299° West 224 258 5,500 1,980 Climbing Albuquerque Center
15:14 33.6753 -111.9769 North 239 275 6,600 1,800 Climbing Albuquerque Center
15:16 33.7206 -111.9208 46° Northeast 238 274 9,300 2,160 Climbing Albuquerque Center
15:17 33.7172 -111.8017 92° East 304 350 11,100 1,620 Climbing Albuquerque Center
15:18 33.7108 -111.6847 94° East 342 394 12,700 1,680 Climbing Albuquerque Center
15:19 33.7039 -111.5617 94° East 366 421 14,600 1,740 Climbing Albuquerque Center
15:20 33.6969 -111.4356 94° East 377 434 16,400 1,680 Climbing Albuquerque Center
15:21 33.6903 -111.3033 93° East 392 451 18,100 1,800 Climbing Albuquerque Center
15:22 33.7150 -111.1411 80° East 412 474 20,200 1,860 Climbing Albuquerque Center
15:23 33.7469 -111.0053 74° East 422 486 22,000 1,740 Climbing Albuquerque Center
15:24 33.7783 -110.8625 75° East 436 502 23,800 1,740 Climbing Albuquerque Center
15:25 33.8119 -110.7167 74° East 447 514 25,700 1,800 Climbing Albuquerque Center
15:26 33.8456 -110.5658 75° East 461 531 27,600 2,220 Climbing Albuquerque Center
15:27 33.8797 -110.4150 75° East 466 536 30,300 2,460 Climbing Albuquerque Center
15:28 33.9136 -110.2628 75° East 468 539 32,800 1,800 Climbing Albuquerque Center
15:29 33.9539 -110.0775 75° East 473 544 34,000 1,800 Climbing Albuquerque Center
15:30 33.9886 -109.9175 75° East 488 562 36,500 1,860 Climbing Albuquerque Center
15:31 34.0239 -109.7528 75° East 493 567 37,900 1,500 Climbing Albuquerque Center
15:32 34.0631 -109.5711 75° East 498 573 39,600 1,440 Climbing Albuquerque Center
15:33 34.0944 -109.4206 76° East 492 566 40,900 660 Climbing Albuquerque Center
15:34 34.1250 -109.2831 75° East 487 560 41,000  Climbing Albuquerque Center
15:35 34.1667 -109.0883 75° East 494 568 41,000  Level Albuquerque Center
15:36 34.2022 -108.9181 76° East 509 586 41,000  Level Albuquerque Center
15:37 34.2383 -108.7444 76° East 524 603 41,000  Level Albuquerque Center
15:38 34.2731 -108.5700 76° East 532 612 41,000  Level Albuquerque Center
15:39 34.3119 -108.3828 76° East 536 617 41,000  Level Albuquerque Center
15:40 34.3483 -108.2075 76° East 536 617 41,000  Level Albuquerque Center
15:41 34.3836 -108.0319 76° East 538 619 41,000  Level Albuquerque Center
15:42 34.4181 -107.8561 77° East 538 619 41,000  Level Albuquerque Center
15:43 34.4606 -107.6447 76° East 540 621 41,000  Level Albuquerque Center
15:44 34.4947 -107.4683 77° East 540 621 41,000  Level Albuquerque Center
15:45 34.5289 -107.2917 77° East 540 621 41,000  Level Albuquerque Center
15:46 34.5631 -107.1131 77° East 545 627 41,000  Level Albuquerque Center
15:47 34.5969 -106.9342 77° East 548 631 41,000  Level Albuquerque Center
15:49 34.6292 -106.7564 78° East 546 628 41,000  Level Albuquerque Center
15:50 34.6697 -106.5450 77° East 544 626 41,000  Level Albuquerque Center
15:51 34.7022 -106.3678 77° East 543 625 41,000  Level Albuquerque Center
15:52 34.7339 -106.1939 77° East 542 624 41,000  Level Albuquerque Center
15:53 34.7736 -105.9856 77° East 540 621 41,000  Level Albuquerque Center
15:54 34.8047 -105.8031 78° East 543 625 41,000  Level Albuquerque Center
15:55 34.8367 -105.6233 78° East 541 623 41,000  Level Albuquerque Center
15:56 34.8694 -105.4436 77° East 540 621 41,000  Level Albuquerque Center
15:57 34.9025 -105.2600 78° East 547 629 41,000  Level Albuquerque Center
15:58 34.9328 -105.0797 78° East 543 625 41,000  Level Albuquerque Center
15:59 34.9650 -104.8986 78° East 542 624 41,000  Level Albuquerque Center
16:00 35.0011 -104.6886 78° East 540 621 41,000  Level Albuquerque Center
16:01 35.0314 -104.5083 78° East 540 621 41,000  Level Albuquerque Center
16:02 35.0611 -104.3278 79° East 542 624 41,000  Level Albuquerque Center
16:03 35.0967 -104.1314 77° East 545 627 41,000  Level Albuquerque Center
16:04 35.1256 -103.9511 79° East 542 624 41,000  Level Albuquerque Center
16:05 35.1564 -103.7597 79° East 542 624 41,000  Level Albuquerque Center
16:06 35.1839 -103.5772 80° East 543 625 41,000  Level Albuquerque Center
16:07 35.1906 -103.3900 87° East 546 628 41,000  Level Albuquerque Center
16:08 35.1964 -103.2039 88° East 545 627 41,000  Level Albuquerque Center
16:09 35.2019 -103.0169 88° East 546 628 41,000  Level Albuquerque Center
16:10 35.2078 -102.8114 88° East 549 632 41,000  Level Albuquerque Center
16:11 35.2131 -102.6239 88° East 552 635 41,000  Level Albuquerque Center
16:12 35.2181 -102.4367 88° East 553 636 41,000  Level Albuquerque Center
16:13 35.2225 -102.2492 88° East 552 635 41,000  Level Albuquerque Center
16:14 35.2269 -102.0628 88° East 551 634 41,000  Level Albuquerque Center
16:15 35.2317 -101.8531 88° East 549 632 41,000  Level Albuquerque Center
16:16 35.2364 -101.6656 88° East 549 632 41,000  Level Albuquerque Center
16:17 35.2461 -101.4761 86° East 552 635 41,000  Level Albuquerque Center
16:18 35.2533 -101.2986 87° East 550 633 41,000  Level Albuquerque Center
16:19 35.2622 -101.0747 87° East 551 634 41,000  Level Albuquerque Center
16:21 35.2703 -100.8889 87° East 550 633 41,000  Level Albuquerque Center
16:22 35.2778 -100.7033 87° East 549 632 41,000  Level Albuquerque Center
16:23 35.2853 -100.5056 87° East 548 631 41,000  Level Albuquerque Center
16:24 35.2925 -100.3206 87° East 546 628 41,000  Level Albuquerque Center
16:25 35.2989 -100.1364 88° East 544 626 41,000  Level Albuquerque Center
16:26 35.3053 -99.9514 88° East 544 626 41,000  Level Albuquerque Center
16:27 35.3117 -99.7678 88° East 542 624 41,000  Level Albuquerque Center
16:28 35.3181 -99.5456 88° East 546 628 41,000  Level Albuquerque Center
16:29 35.3228 -99.3600 88° East 547 629 41,000  Level Albuquerque Center
16:29 35.3258 -99.2533 88° East 543 625 41,000  Level Fort Worth Center
16:30 35.3286 -99.0600 89° East 549 632 41,000  Level Fort Worth Center
16:31 35.3350 -98.8742 88° East 549 632 41,000  Level Fort Worth Center
16:32 35.3392 -98.6858 88° East 549 632 41,000  Level Fort Worth Center
16:33 35.3431 -98.4953 89° East 549 632 41,000  Level Fort Worth Center
16:34 35.3464 -98.3322 89° East 544 626 41,000  Level Fort Worth Center
16:35 35.3497 -98.1414 89° East 550 633 41,000  Level Fort Worth Center
16:36 35.3528 -97.9506 89° East 550 633 41,000  Level Fort Worth Center
16:37 35.3556 -97.7622 89° East 550 633 41,000  Level Fort Worth Center
16:38 35.3561 -97.5511 90° East 557 641 41,000  Level Fort Worth Center
16:39 35.3728 -97.3447 84° East 576 663 41,000  Level Fort Worth Center
16:40 35.3642 -97.1539 93° East 570 656 41,000  Level Fort Worth Center
16:41 35.3700 -96.9631 88° East 570 656 41,000  Level Fort Worth Center
16:42 35.3711 -96.7669 90° East 570 656 41,000  Level Fort Worth Center
16:43 35.3742 -96.5733 89° East 570 656 41,000  Level Fort Worth Center
16:44 35.3789 -96.3747 88° East 570 656 41,000  Level Fort Worth Center
16:45 35.3814 -96.1736 89° East 576 663 41,000  Level Fort Worth Center
16:46 35.3833 -95.9750 89° East 576 663 41,000  Level Fort Worth Center
16:47 35.3856 -95.7967 89° East 576 663 41,000  Level Fort Worth Center
16:48 35.3869 -95.5981 89° East 581 669 41,000  Level Fort Worth Center
16:50 35.3875 -95.2925 90° East 591 680 41,000  Level Memphis Center
16:51 35.3869 -95.0889 90° East 591 680 41,000  Level Memphis Center
16:52 35.3881 -94.8903 90° East 591 680 41,000  Level Memphis Center
16:53 35.3869 -94.6864 90° East 591 680 41,000  Level Memphis Center
16:54 35.3875 -94.4853 90° East 591 680 41,000  Level Memphis Center
16:55 35.3858 -94.2817 91° East 591 680 41,000  Level Memphis Center
16:56 35.3733 -94.0797 94° East 591 680 41,000 -660 Level Memphis Center
16:57 35.3581 -93.8856 95° East 584 672 39,800 -1,020 Descending Memphis Center
16:58 35.3464 -93.6994 94° East 569 655 39,000 -420 Descending Memphis Center
16:59 35.3328 -93.5028 95° East 569 655 39,000  Level Memphis Center
17:00 35.3172 -93.2886 95° East 576 663 39,000  Level Memphis Center
17:01 35.3008 -93.0844 96° East 582 670 39,000  Level Memphis Center
17:02 35.2861 -92.9033 96° East 597 687 39,000  Level Memphis Center
17:03 35.2711 -92.7044 95° East 597 687 39,000  Level Memphis Center
17:04 35.2519 -92.4981 96° East 597 687 39,000  Level Memphis Center
17:05 35.2325 -92.2764 96° East 597 687 39,000  Level Memphis Center
17:06 35.2167 -92.0753 95° East 597 687 39,000  Level Memphis Center
17:07 35.1983 -91.8742 96° East 597 687 39,000  Level Memphis Center
17:08 35.1800 -91.6731 96° East 597 687 39,000  Level Memphis Center
17:09 35.1611 -91.4694 96° East 597 687 39,000  Level Memphis Center
17:10 35.1458 -91.2714 95° East 592 681 39,000  Level Memphis Center
17:11 35.1264 -91.0681 97° East 598 688 39,000  Level Memphis Center
17:12 35.1064 -90.8647 97° East 598 688 39,000  Level Memphis Center
17:13 35.0864 -90.6617 97° East 598 688 39,000  Level Memphis Center
17:14 35.0678 -90.4839 97° East 598 688 39,000  Level Memphis Center
17:15 35.0469 -90.2783 97° East 598 688 39,000  Level Memphis Center
17:16 35.0278 -90.0806 97° East 598 688 39,000  Level Memphis Center
17:17 35.0128 -89.8806 95° East 598 688 39,000  Level Memphis Center
17:18 34.9969 -89.6497 95° East 604 695 39,000  Level Memphis Center
17:19 34.9747 -89.4497 98° East 611 703 39,000  Level Memphis Center
17:20 34.9586 -89.2497 96° East 605 696 39,000  Level Memphis Center
17:21 34.9419 -89.0475 96° East 595 685 39,000  Level Memphis Center
17:22 34.9250 -88.8475 96° East 595 685 39,000  Level Memphis Center
17:23 34.9103 -88.6706 96° East 595 685 39,000  Level Memphis Center
17:24 34.8906 -88.4583 96° East 590 679 39,000  Level Memphis Center
17:25 34.8747 -88.2611 96° East 583 671 39,000 -180 Level Memphis Center
17:26 34.8592 -88.0819 96° East 583 671 38,700 -720 Descending Memphis Center
17:27 34.8411 -87.8953 97° East 567 652 37,600 -1,440 Descending Memphis Center
17:28 34.8267 -87.7133 95° East 545 627 35,900 -1,860 Descending Memphis Center
17:30 34.7844 -87.2911 97° East 505 581 31,300 -1,440 Descending Atlanta Center
17:31 34.7681 -87.1136 96° East 510 587 31,000 -180 Descending Atlanta Center
17:32 34.7514 -86.9358 96° East 515 593 31,000  Level Atlanta Center
17:33 34.7219 -86.7631 102° East 525 604 31,000  Level Atlanta Center
17:34 34.6778 -86.5900 107° East 525 604 31,000  Level Atlanta Center
17:35 34.6311 -86.4194 108° East 530 610 31,000  Level Atlanta Center
17:36 34.5842 -86.2489 108° East 535 616 31,000 -1,320 Level Atlanta Center
17:37 34.5369 -86.0839 109° East 529 609 28,400 -2,700 Descending Atlanta Center
17:38 34.4917 -85.9164 108° East 523 602 25,600 -2,580 Descending Atlanta Center
17:39 34.4519 -85.7719 108° East 517 595 23,300 -2,460 Descending Atlanta Center
17:40 34.4061 -85.6150 109° East 504 580 20,700 -2,700 Descending Atlanta Center
17:41 34.3644 -85.4506 107° East 477 549 17,900 -2,520 Descending Atlanta Center
17:42 34.3742 -85.3197 85° East 426 490 15,700 -2,160 Descending Atlanta Center
17:43 34.3711 -85.1939 92° East 385 443 13,600 -1,980 Descending Atlanta Center
17:44 34.3219 -85.0928 120° Southeast 344 396 11,800 -1,740 Descending Atlanta Center
17:45 34.2686 -84.9989 124° Southeast 339 390 10,200 -1,560 Descending Atlanta Center
17:46 34.2253 -84.9131 121° Southeast 328 377 8,700 -1,140 Descending Atlanta Center
17:47 34.1694 -84.8447 135° Southeast 286 329 8,000 -600 Descending Atlanta Center
17:48 34.1281 -84.7842 130° Southeast 274 315 7,600 -900 Descending Atlanta Center
17:49 34.0992 -84.7136 116° Southeast 246 283 6,300 -1,500 Descending Atlanta Center
17:50 34.0725 -84.6456 115° Southeast 222 255 4,700 -1,500 Descending Atlanta Center
17:51 34.0706 -84.5781 92° East 206 237 3,300 -1,080 Descending Atlanta Center
17:52 34.0689 -84.5153 92° East 193 222 2,600 -480 Descending Atlanta Center
17:53 34.0333 -84.5100 173° South 114 131 2,400 -420 Descending Atlanta Center
17:54 34.0122 -84.5500 238° Southwest 109 125 1,800 -600 Descending Atlanta Center